Location: Newark
(46.7000°N, 60.6000°W)
Time: 07:52:03
(UTC+00:00)

Vanguard 3 - Pass Details

Date: 08 November 2020
Orbit: 508 x 3262 km, 33.3° (Epoch: 29 November)

Event Time Altitude Azimuth Distance (km) Brightness Sun altitude
Rises 10:37:18 0° 268° (W) 5,954 11.0 -3.7°
Reaches altitude 10° 10:41:00 10° 262° (W) 5,254 10.7 -3.1°
Maximum altitude 10:56:23 45° 198° (SSW) 3,901 10.7 -0.7°
Drops below altitude 10° 11:14:20 10° 134° (SE) 6,043 13.3 2.1°
Sets 11:19:01 0° 129° (SE) 6,878 14.2 2.8°
